"Pseudo-MPEC" for C0VDZM5

Created 2024 Dec 1 7:31:06 UT using Find_Orb

Click here for an explanation of pseudo-MPECs

 
 Astrometry: 
     C0VDZM5* C2024 11 26.43936507 12 27.040+30 55 47.75   ~BQBH 22.34GVNEOCPV00
     C0VDZM5  C2024 11 26.44500007 12 27.335+30 55 46.13   ~BQBH 22.78GVNEOCPV00
     C0VDZM5  C2024 11 26.45061007 12 27.608+30 55 44.22   ~BQBH 22.50GVNEOCPV00
     C0VDZM5  C2024 11 26.45622307 12 27.882+30 55 42.71   ~BQBH 22.03GVNEOCPV00
     C0VDZM5 KC2024 11 26.50521707 12 30.240+30 55 26.83   ~BQDH 22.33GVNEOCPV06
     C0VDZM5 KC2024 11 26.52066607 12 30.992+30 55 21.54   ~BQDH 21.85GVNEOCPV06
     C0VDZM5 KC2024 11 26.53345807 12 31.626+30 55 17.51   ~BQDH 22.66GVNEOCPV06
     C0VDZM5 7C2024 11 29.11452007 14 40.432+30 41 27.05   ~BT9H       VNEOCPZ84
     C0VDZM5 7C2024 11 29.13575307 14 41.358+30 41 19.64   ~BT9H       VNEOCPZ84
     C0VDZM5 KC2024 11 29.28719307 14 49.020+30 40 29.39   ~BT7l 22.40GVNEOCPV06
     C0VDZM5 KC2024 11 29.29365107 14 49.283+30 40 26.98   ~BT7l 22.49GVNEOCPV06
     C0VDZM5 KC2024 11 29.30011007 14 49.553+30 40 25.21   ~BT7l 23.18GVNEOCPV06

Station data:
(V00) Kitt Peak-Bok  (N31.963125 W111.600190)  US/Arizona.  Observers T. A.
   Pruyne, B. M. Africano, E. J. Christensen, G. A. Farneth, D. C. Fuls, A.
   R. Gibbs, A. D. Grauer, H. Gröller, J. A. Johnson, R. A. Kowalski, S. M.
   Larson, G. J. Leonard, D. Rankin, R. L. Seaman, F. C. Shelly, K. W.
   Wierzchoś. 2.25-m reflector + 4x4K mosaic CCD.
(V06) Catalina Sky Survey-Kuiper  (N32.416871 W110.732550)  US/Arizona.
   Observers T. A. Pruyne, B. M. Africano, E. J. Christensen, G. A. Farneth,
   D. C. Fuls, A. R. Gibbs, A. D. Grauer, H. Gröller, J. A. Johnson, R. A.
   Kowalski, S. M. Larson, G. J. Leonard, D. Rankin, R. L. Seaman, F. C.
   Shelly, K. W. Wierzchoś. 1.55-m reflector + CCD.
(Z84) Calar Alto-Schmidt  (N37.224006 W2.548160)  Spain.  Observer F. Ocaña.
   Measurers E. Schwab, D. Koschny, M. Micheli. 0.8-m f/3 Schmidt + CCD.

Orbital elements:  C0VDZM5
   Perihelion 2025 Jan 4.75321 +/- 35.5 TT = 18:04:37 (JD 2460680.25321)
Epoch 2024 Nov 29.0 TT = JDT 2460643.5   Earth MOID: 0.6486   Ju: 0.3425
M 355.50695708 +/- 7                Ma: 0.0252                   AutoNEOCP
n   0.12224898 +/- 0.0887           Peri.  169.51820 +/- 29
a   4.02073889 +/- 1.94             Node   296.04922 +/- 4.6
e   0.5942774 +/- 0.158             Incl.    7.41016 +/- 1.5
P   8.06230                H 20.99  G  0.15   U 11.1  SR
q 1.63130463 +/- 0.153    Q 6.41017316 +/- 8.27           (J2000 ecliptic)
From 12 observations 2024 Nov. 26-29; mean residual 0".20
Residuals in arcseconds: 
241126 V00  .13-  .06-    241126 V06  .08-  .09+    241129 Z84  .05-  .51-    
241126 V00  .15+  .08+    241126 V06  .15-  .17-    241129 V06  .31+  .39+    
241126 V00  .15+  .07-    241126 V06  .09-  .00     241129 V06  .11+  .00     
241126 V00  .17+  .18+    241129 Z84  .41-  .19-    241129 V06  .02+  .26+    

Ephemerides (geocentric):
Date (UTC) HH   RA             Dec           delta  r     elong  mag " sig PA
---- --------  ------------   ------------  ------ ------ -----  --- --------
2024 12 01 08  07 16 17.944   +30 28 48.15  .77847 1.6697 142.0 22.6 44.5  79
2024 12 01 09  07 16 19.660   +30 28 33.46  .77819 1.6697 142.0 22.6 45.7  79
2024 12 01 10  07 16 21.373   +30 28 18.75  .77792 1.6696 142.1 22.6 47.0  79
2024 12 01 11  07 16 23.080   +30 28 04.02  .77764 1.6695 142.1 22.6 48.2  79
2024 12 01 12  07 16 24.784   +30 27 49.28  .77736 1.6694 142.1 22.6 49.5  79
2024 12 01 13  07 16 26.483   +30 27 34.52  .77709 1.6693 142.2 22.6 50.8  79
2024 12 01 14  07 16 28.179   +30 27 19.75  .77681 1.6692 142.2 22.6 52.1  79
2024 12 01 15  07 16 29.870   +30 27 04.97  .77653 1.6691 142.2 22.6 53.4  79
2024 12 01 16  07 16 31.556   +30 26 50.16  .77626 1.6690 142.3 22.6 54.7  79
2024 12 01 17  07 16 33.239   +30 26 35.35  .77598 1.6689 142.3 22.6 56.0  79
2024 12 01 18  07 16 34.917   +30 26 20.51  .77571 1.6688 142.3 22.6 57.4  79
2024 12 01 19  07 16 36.591   +30 26 05.66  .77543 1.6687 142.4 22.6 58.8  79
2024 12 01 20  07 16 38.260   +30 25 50.80  .77516 1.6687 142.4 22.6 60.1  79
2024 12 01 21  07 16 39.926   +30 25 35.92  .77488 1.6686 142.5 22.6 61.5  79
2024 12 01 22  07 16 41.587   +30 25 21.02  .77461 1.6685 142.5 22.6 63.0  79
2024 12 01 23  07 16 43.244   +30 25 06.11  .77433 1.6684 142.5 22.6 64.4  79
2024 12 02 00  07 16 44.897   +30 24 51.19  .77406 1.6683 142.6 22.6 65.8  79
2024 12 02 01  07 16 46.545   +30 24 36.25  .77379 1.6682 142.6 22.6 67.3  79
2024 12 02 02  07 16 48.189   +30 24 21.29  .77351 1.6681 142.6 22.6 68.7  79
2024 12 02 03  07 16 49.829   +30 24 06.32  .77324 1.6680 142.7 22.6 70.2  79
2024 12 02 04  07 16 51.465   +30 23 51.33  .77297 1.6679 142.7 22.6 71.7  79
2024 12 02 05  07 16 53.097   +30 23 36.32  .77270 1.6678 142.7 22.6 73.2  79
2024 12 02 06  07 16 54.724   +30 23 21.30  .77242 1.6678 142.8 22.6 74.7  79
2024 12 02 07  07 16 56.347   +30 23 06.27  .77215 1.6677 142.8 22.6 76.3  79
2024 12 02 08  07 16 57.966   +30 22 51.22  .77188 1.6676 142.8 22.6 77.8  79
2024 12 02 09  07 16 59.580   +30 22 36.15  .77161 1.6675 142.9 22.6 79.4  79
2024 12 02 10  07 17 01.190   +30 22 21.07  .77134 1.6674 142.9 22.6 80.9  79
2024 12 02 11  07 17 02.796   +30 22 05.97  .77107 1.6673 143.0 22.6 82.5  79
2024 12 02 12  07 17 04.398   +30 21 50.86  .77080 1.6672 143.0 22.6 84.1  79
2024 12 02 13  07 17 05.996   +30 21 35.73  .77053 1.6671 143.0 22.6 85.7  79
2024 12 02 14  07 17 07.589   +30 21 20.59  .77026 1.6671 143.1 22.6 87.4  79
2024 12 02 15  07 17 09.178   +30 21 05.43  .76999 1.6670 143.1 22.6 89.0  79
2024 12 02 16  07 17 10.763   +30 20 50.26  .76972 1.6669 143.1 22.6 90.7  79
2024 12 02 17  07 17 12.343   +30 20 35.07  .76945 1.6668 143.2 22.6 92.3  79
2024 12 02 18  07 17 13.920   +30 20 19.86  .76918 1.6667 143.2 22.6 94.0  79
2024 12 02 19  07 17 15.492   +30 20 04.64  .76891 1.6666 143.2 22.6 95.7  79
2024 12 02 20  07 17 17.059   +30 19 49.40  .76864 1.6665 143.3 22.6 97.4  79
2024 12 02 21  07 17 18.623   +30 19 34.15  .76837 1.6664 143.3 22.5   99  79
2024 12 02 22  07 17 20.182   +30 19 18.88  .76810 1.6663 143.3 22.5  101  79
2024 12 02 23  07 17 21.737   +30 19 03.59  .76784 1.6663 143.4 22.5  103  79
2024 12 03 00  07 17 23.288   +30 18 48.29  .76757 1.6662 143.4 22.5  104  79
2024 12 03 01  07 17 24.835   +30 18 32.98  .76730 1.6661 143.5 22.5  106  79
2024 12 03 02  07 17 26.377   +30 18 17.65  .76704 1.6660 143.5 22.5  108  79
2024 12 03 03  07 17 27.915   +30 18 02.30  .76677 1.6659 143.5 22.5  110  79
2024 12 03 04  07 17 29.449   +30 17 46.94  .76650 1.6658 143.6 22.5  112  79
2024 12 03 05  07 17 30.978   +30 17 31.56  .76624 1.6657 143.6 22.5  113  79
2024 12 03 06  07 17 32.504   +30 17 16.17  .76597 1.6657 143.6 22.5  115  79
2024 12 03 07  07 17 34.025   +30 17 00.76  .76571 1.6656 143.7 22.5  117  79